Flag for U.S.A. Weather past 2 weeks in Rancho Cucamonga, California, U.S.A.

Now
57 °F

Mostly cloudy.


Feels Like: 56 °F
Forecast: 51 / 76 °F
Wind: 6 mph from Southwest

Location: Ontario International Airport

Current Time: Apr 1, 2015 at 7:15:14 AM

Latest Report: Apr 1, 2015 at 5:53 AM


Visibility: 7 mi

Pressure: 29.94 "Hg

Humidity: 81%

Dew point: 51 °F

Location of Rancho CucamongaLocation

Historic Weather in Rancho Cucamonga — Graph

°F

Rancho Cucamonga temperature yesterday

Maximum temperature yesterday: 80 °F (at 2:53 PM)
Minimum temperature yesterday: 56 °F (at 6:53 AM)
Average temperature yesterday: 66 °F

Past Weeks' High & Low Weather Summary

 TemperatureHumidityPressure
High92 °F (Mar 26, 2:53 PM)97% (Mar 21, 6:53 AM)30.18 "Hg (Mar 21, 6:53 AM)
Low53 °F (Mar 24, 5:53 AM)9% (Mar 26, 1:53 PM)29.85 "Hg (Mar 17, 4:53 PM)
Average68 °F52%30.00 "Hg
* Reported Mar 17 5:53 AM — Apr 1 5:53 AM, Rancho Cucamonga, Weather by CustomWeather, © 2015

Note: Actual official high and low records may vary slightly from our data, if they occured in-between our weather recording intervals... More about our weather records

Advertising

Rancho Cucamonga weather history for previous 24 hours

 ConditionsComfort  
Time TempWeatherWind HumidityBarometerVisibility
5:53 AM
Wed, Apr 1
57 °FMostly cloudy.6 mph81%29.94 "Hg7 mi
4:53 AM56 °FFog.5 mph90%29.94 "Hg6 mi
3:53 AM56 °FFog.9 mph90%29.95 "Hg3 mi
2:53 AM56 °FPassing clouds.5 mph90%29.95 "Hg8 mi
1:53 AM57 °FPassing clouds.5 mph87%29.96 "Hg9 mi
12:53 AM58 °FPassing clouds.3 mph84%29.95 "Hg10 mi
11:53 PM
Tue, Mar 31
58 °FPassing clouds.5 mph81%29.95 "Hg10 mi
10:53 PM59 °FPassing clouds.3 mph75%29.96 "Hg10 mi
9:53 PM60 °FPassing clouds.9 mph75%29.96 "Hg10 mi
8:53 PM63 °FPassing clouds.13 mph68%29.95 "Hg10 mi
7:53 PM66 °FPassing clouds.10 mph56%29.92 "Hg10 mi
6:53 PM70 °FScattered clouds.12 mph42%29.90 "Hg10 mi
5:53 PM74 °FScattered clouds.14 mph33%29.90 "Hg10 mi
4:53 PM76 °FPartly sunny.13 mph32%29.90 "Hg10 mi
3:53 PM78 °FPartly sunny.13 mph32%29.90 "Hg10 mi
2:53 PM80 °FPartly sunny.16 mph28%29.91 "Hg10 mi
1:53 PM79 °FPartly sunny.12 mph29%29.93 "Hg10 mi
12:53 PM77 °FOvercast.7 mph32%29.95 "Hg10 mi
11:53 AM75 °FPartly sunny.No wind34%29.97 "Hg7 mi
10:53 AM71 °FPartly sunny.5 mph45%29.99 "Hg6 mi
9:53 AM65 °FPartly sunny.3 mph66%29.99 "Hg6 mi
8:53 AM62 °FPartly sunny.3 mph73%29.98 "Hg8 mi
7:53 AM61 °FPartly sunny.No wind67%29.96 "Hg10 mi
Weather by CustomWeather, © 2015

See weather overviewHow to use our weather pages